Location: Newark
(17.9939°S, 31.0481°E)
Time: 08:47:55
(UTC+00:00)

Courier 1B - Pass Details

Date: 14 November 2019
Orbit: 963 x 1209 km, 28.3° (Epoch: 10 December)

Event Time Altitude Azimuth Distance (km) Brightness Sun altitude
Exits shadow 01:18:39 27° 2° (N) 1,937 8.8 -25.3°
Drops below altitude 10° 01:22:26 10° 30° (NNE) 2,847 9.9 -24.5°
Sets 01:25:21 0° 39° (NE) 3,759 10.7 -23.9°
